QPF
0.03 0.02 0.02 0.03 0.07 0.10 0.09 0.11 0.13 0.13 0.13 0.13 0.11 0.09 0.09 0.07 0.06 0.05 0.05 0.04 0.04 0.04 0.04 0.04 0.04 0.04 0.04 0.04 0.05 0.06 0.09 0.11 0.13 0.14 0.12 0.07 0.04 0.04 0.04 0.04 0.05 0.05 0.05
0.04 0.03 0.03 0.02 0.03 0.07 0.09 0.12 0.13 0.12 0.11 0.12 0.11 0.08 0.07 0.05 0.05 0.05 0.04 0.03 0.03 0.03 0.02 0.03 0.03 0.03 0.03 0.03 0.05 0.07 0.10 0.12 0.12 0.13 0.13 0.09 0.06 0.04 0.03 0.04 0.05 0.04 0.05
0.04 0.03 0.03 0.05 0.05 0.06 0.10 0.16 0.15 0.13 0.13 0.11 0.09 0.07 0.06 0.05 0.04 0.04 0.03 0.02 0.02 0.02 0.02 0.03 0.03 0.03 0.03 0.04 0.05 0.07 0.09 0.11 0.12 0.13 0.14 0.12 0.09 0.06 0.04 0.03 0.03 0.03 0.03
0.04 0.05 0.05 0.06 0.07 0.08 0.11 0.13 0.12 0.12 0.11 0.09 0.07 0.07 0.07 0.06 0.05 0.04 0.03 0.02 0.02 0.02 0.01 0.02 0.02 0.02 0.03 0.04 0.04 0.06 0.08 0.10 0.11 0.12 0.13 0.12 0.10 0.09 0.08 0.05 0.03 0.02 0.02
0.04 0.06 0.06 0.08 0.09 0.10 0.11 0.12 0.11 0.11 0.10 0.08 0.06 0.06 0.06 0.05 0.04 0.03 0.02 0.01 0.02 0.02 0.02 0.01 0.02 0.02 0.02 0.03 0.04 0.05 0.07 0.09 0.11 0.11 0.10 0.09 0.10 0.09 0.08 0.08 0.06 0.04 0.04
0.05 0.06 0.08 0.09 0.09 0.10 0.11 0.13 0.12 0.11 0.08 0.06 0.05 0.05 0.05 0.05 0.05 0.04 0.03 0.02 0.02 0.02 0.01 0.01 0.01 0.02 0.02 0.03 0.05 0.07 0.08 0.09 0.10 0.11 0.13 0.14 0.13 0.11 0.10 0.08 0.07 0.05 0.04
0.05 0.07 0.09 0.09 0.09 0.09 0.11 0.12 0.12 0.12 0.09 0.06 0.05 0.05 0.06 0.07 0.06 0.04 0.02 0.02 0.02 0.01 0.01 0.01 0.02 0.02 0.02 0.02 0.04 0.06 0.08 0.08 0.09 0.08 0.09 0.12 0.15 0.13 0.12 0.11 0.09 0.07 0.06
0.06 0.06 0.06 0.08 0.09 0.08 0.09 0.10 0.11 0.11 0.09 0.07 0.06 0.05 0.05 0.05 0.05 0.04 0.02 0.02 0.01 0.01 0.02 0.02 0.03 0.03 0.03 0.02 0.03 0.03 0.05 0.07 0.08 0.09 0.10 0.08 0.08 0.09 0.10 0.12 0.11 0.10 0.07
0.03 0.04 0.04 0.06 0.08 0.08 0.08 0.09 0.10 0.11 0.09 0.08 0.06 0.05 0.03 0.03 0.03 0.02 0.01 0.01 0.01 0.01 0.01 0.02 0.03 0.02 0.02 0.02 0.03 0.05 0.05 0.06 0.06 0.07 0.10 0.08 0.07 0.08 0.08 0.09 0.10 0.10 0.08
0.02 0.03 0.04 0.06 0.09 0.09 0.08 0.10 0.10 0.10 0.10 0.09 0.07 0.05 0.03 0.02 0.02 0.01 0.01 0.01 0.01 0.01 0.02 0.02 0.02 0.02 0.01 0.02 0.03 0.05 0.06 0.06 0.05 0.05 0.05 0.05 0.05 0.06 0.07 0.06 0.07 0.08 0.08
0.02 0.02 0.04 0.06 0.08 0.08 0.08 0.09 0.11 0.10 0.10 0.10 0.08 0.06 0.04 0.03 0.02 0.01 0.01 0.01 0.02 0.03 0.02 0.02 0.01 0.01 0.02 0.02 0.03 0.04 0.05 0.06 0.06 0.05 0.04 0.04 0.04 0.04 0.05 0.06 0.06 0.07 0.07
0.03 0.04 0.04 0.04 0.05 0.06 0.07 0.08 0.12 0.13 0.12 0.10 0.11 0.08 0.05 0.03 0.02 0.02 0.02 0.02 0.03 0.03 0.02 0.02 0.02 0.01 0.01 0.02 0.02 0.03 0.03 0.03 0.04 0.04 0.04 0.04 0.04 0.04 0.04 0.05 0.07 0.08 0.07
0.02 0.03 0.03 0.04 0.05 0.05 0.07 0.11 0.14 0.17 0.19 0.16 0.14 0.12 0.08 0.05 0.03 0.04 0.02 0.02 0.01 0.01 0.01 0.02 0.02 0.01 0.01 0.01 0.02 0.02 0.02 0.02 0.02 0.02 0.02 0.02 0.03 0.03 0.03 0.03 0.04 0.05 0.06
0.02 0.02 0.03 0.06 0.08 0.09 0.08 0.09 0.10 0.12 0.13 0.12 0.09 0.09 0.07 0.05 0.03 0.03 0.02 0.01 0.01 0.01 0.01 0.01 0.01 0.01 0.01 0.01 0.01 0.01 0.01 0.01 0.01 0.01 0.02 0.02 0.03 0.02 0.02 0.02 0.02 0.03 0.04
0.02 0.02 0.04 0.08 0.11 0.12 0.12 0.08 0.08 0.06 0.07 0.07 0.05 0.05 0.04 0.02 0.02 0.01 0.01 0.01 0.01 0.00 0.00 0.01 0.01 0.01 0.01 0.01 0.01 0.01 0.01 0.01 0.01 0.01 0.01 0.02 0.02 0.02 0.02 0.02 0.02 0.03 0.04
0.02 0.02 0.03 0.07 0.10 0.11 0.10 0.08 0.07 0.06 0.05 0.05 0.04 0.04 0.03 0.02 0.02 0.02 0.02 0.01 0.01 0.01 0.01 0.01 0.01 0.01 0.01 0.01 0.01 0.01 0.01 0.01 0.01 0.01 0.01 0.01 0.01 0.01 0.01 0.01 0.01 0.02 0.03
0.03 0.04 0.05 0.05 0.06 0.08 0.07 0.06 0.05 0.05 0.06 0.06 0.05 0.04 0.04 0.03 0.02 0.02 0.01 0.01 0.01 0.01 0.01 0.01 0.01 0.01 0.01 0.01 0.01 0.02 0.02 0.02 0.01 0.01 0.01 0.01 0.01 0.01 0.01 0.01 0.01 0.01 0.01
0.03 0.05 0.05 0.04 0.04 0.05 0.05 0.05 0.05 0.05 0.05 0.05 0.04 0.02 0.02 0.02 0.02 0.01 0.01 0.01 0.01 0.01 0.01 0.01 0.01 0.01 0.01 0.00 0.01 0.01 0.02 0.02 0.01 0.01 0.01 0.02 0.02 0.01 0.01 0.01 0.01 0.02 0.02
0.02 0.03 0.03 0.03 0.03 0.03 0.04 0.06 0.06 0.05 0.04 0.04 0.04 0.02 0.02 0.01 0.01 0.02 0.02 0.01 0.01 0.01 0.01 0.01 0.01 0.02 0.01 0.00 0.00 0.01 0.02 0.02 0.01 0.01 0.01 0.02 0.02 0.02 0.02 0.02 0.02 0.02 0.02
0.01 0.01 0.02 0.03 0.03 0.03 0.03 0.03 0.04 0.04 0.03 0.04 0.04 0.03 0.02 0.02 0.02 0.02 0.02 0.01 0.01 0.01 0.01 0.01 0.01 0.02 0.01 0.01 0.01 0.01 0.02 0.02 0.01 0.01 0.01 0.01 0.01 0.02 0.02 0.02 0.04 0.03 0.02
0.01 0.02 0.03 0.04 0.04 0.04 0.04 0.03 0.03 0.03 0.02 0.02 0.04 0.03 0.02 0.02 0.02 0.02 0.02 0.01 0.01 0.01 0.02 0.01 0.01 0.01 0.02 0.01 0.01 0.02 0.02 0.02 0.02 0.02 0.01 0.01 0.01 0.02 0.02 0.02 0.02 0.02 0.02
0.01 0.02 0.04 0.05 0.05 0.04 0.04 0.04 0.03 0.02 0.02 0.02 0.04 0.05 0.03 0.02 0.01 0.02 0.02 0.01 0.01 0.01 0.02 0.02 0.02 0.01 0.01 0.01 0.01 0.02 0.02 0.03 0.02 0.02 0.01 0.01 0.01 0.02 0.02 0.01 0.01 0.01 0.01
0.02 0.02 0.04 0.05 0.05 0.04 0.04 0.03 0.03 0.02 0.02 0.02 0.04 0.06 0.05 0.03 0.02 0.02 0.02 0.02 0.01 0.01 0.01 0.01 0.02 0.02 0.01 0.01 0.02 0.03 0.02 0.03 0.03 0.02 0.01 0.01 0.01 0.02 0.02 0.01 0.01 0.01 0.01
0.02 0.02 0.04 0.06 0.05 0.03 0.03 0.03 0.03 0.03 0.03 0.03 0.03 0.05 0.05 0.04 0.03 0.03 0.02 0.01 0.01 0.02 0.02 0.02 0.02 0.02 0.01 0.01 0.01 0.02 0.02 0.02 0.03 0.03 0.02 0.02 0.03 0.02 0.02 0.01 0.01 0.01 0.02
0.02 0.02 0.03 0.05 0.05 0.03 0.02 0.02 0.02 0.03 0.04 0.04 0.03 0.03 0.03 0.04 0.03 0.03 0.02 0.01 0.01 0.01 0.01 0.02 0.03 0.02 0.01 0.01 0.02 0.02 0.02 0.02 0.03 0.03 0.02 0.02 0.03 0.03 0.02 0.02 0.02 0.01 0.02
0.01 0.02 0.02 0.05 0.05 0.02 0.02 0.02 0.02 0.02 0.03 0.04 0.03 0.03 0.03 0.03 0.02 0.02 0.01 0.01 0.01 0.01 0.01 0.01 0.02 0.02 0.01 0.01 0.01 0.01 0.01 0.01 0.02 0.02 0.02 0.02 0.02 0.03 0.03 0.02 0.03 0.03 0.03
MSLP
1009.02 1009.23 1009.49 1009.80 1010.17 1010.60 1011.11 1011.67 1012.28 1012.90 1013.47 1013.96 1014.35 1014.63 1014.79 1014.88 1014.94 1015.01 1015.12 1015.28 1015.50 1015.74 1015.98 1016.18 1016.30 1016.34 1016.29 1016.17 1016.01 1015.84 1015.69 1015.58 1015.51 1015.48 1015.46 1015.45 1015.42 1015.37 1015.32 1015.26 1015.23 1015.26 1015.35
1008.92 1009.11 1009.32 1009.55 1009.83 1010.18 1010.60 1011.10 1011.69 1012.31 1012.93 1013.50 1013.98 1014.34 1014.59 1014.74 1014.83 1014.90 1014.98 1015.11 1015.29 1015.50 1015.73 1015.93 1016.07 1016.13 1016.10 1016.00 1015.85 1015.69 1015.53 1015.42 1015.35 1015.32 1015.32 1015.34 1015.34 1015.32 1015.28 1015.22 1015.17 1015.14 1015.17
1009.02 1009.20 1009.37 1009.52 1009.69 1009.90 1010.20 1010.60 1011.11 1011.71 1012.35 1012.97 1013.54 1014.01 1014.36 1014.58 1014.72 1014.80 1014.87 1014.97 1015.11 1015.28 1015.48 1015.67 1015.81 1015.89 1015.89 1015.82 1015.69 1015.54 1015.40 1015.29 1015.22 1015.21 1015.23 1015.27 1015.31 1015.31 1015.29 1015.23 1015.15 1015.08 1015.04
1009.33 1009.52 1009.65 1009.73 1009.77 1009.84 1009.98 1010.24 1010.64 1011.17 1011.79 1012.45 1013.09 1013.65 1014.09 1014.41 1014.60 1014.72 1014.79 1014.87 1014.97 1015.11 1015.27 1015.44 1015.59 1015.68 1015.71 1015.67 1015.57 1015.45 1015.33 1015.23 1015.18 1015.18 1015.22 1015.28 1015.34 1015.36 1015.34 1015.27 1015.17 1015.05 1014.94
1009.79 1010.01 1010.13 1010.13 1010.05 1009.97 1009.94 1010.04 1010.30 1010.73 1011.31 1011.97 1012.65 1013.28 1013.81 1014.20 1014.46 1014.62 1014.71 1014.78 1014.86 1014.97 1015.11 1015.27 1015.42 1015.54 1015.60 1015.60 1015.54 1015.45 1015.35 1015.28 1015.24 1015.25 1015.29 1015.36 1015.42 1015.45 1015.43 1015.34 1015.21 1015.03 1014.86
1010.34 1010.60 1010.70 1010.64 1010.47 1010.24 1010.06 1009.99 1010.10 1010.42 1010.91 1011.54 1012.22 1012.89 1013.48 1013.94 1014.26 1014.46 1014.58 1014.66 1014.74 1014.84 1014.98 1015.15 1015.32 1015.47 1015.57 1015.62 1015.61 1015.55 1015.48 1015.42 1015.39 1015.40 1015.44 1015.49 1015.54 1015.56 1015.52 1015.42 1015.24 1015.02 1014.79
1010.89 1011.18 1011.28 1011.18 1010.93 1010.59 1010.27 1010.05 1010.02 1010.21 1010.60 1011.16 1011.81 1012.48 1013.09 1013.59 1013.96 1014.21 1014.36 1014.47 1014.57 1014.70 1014.86 1015.06 1015.27 1015.46 1015.62 1015.71 1015.75 1015.74 1015.69 1015.64 1015.61 1015.60 1015.62 1015.65 1015.68 1015.67 1015.61 1015.48 1015.27 1015.01 1014.72
1011.35 1011.66 1011.76 1011.64 1011.34 1010.93 1010.50 1010.17 1010.02 1010.08 1010.36 1010.83 1011.42 1012.05 1012.65 1013.16 1013.55 1013.84 1014.04 1014.19 1014.34 1014.51 1014.72 1014.97 1015.24 1015.49 1015.71 1015.86 1015.94 1015.96 1015.94 1015.89 1015.84 1015.81 1015.80 1015.80 1015.80 1015.76 1015.67 1015.51 1015.29 1015.00 1014.68
1011.66 1011.98 1012.09 1011.97 1011.66 1011.21 1010.73 1010.32 1010.07 1010.03 1010.20 1010.57 1011.06 1011.62 1012.17 1012.66 1013.06 1013.37 1013.61 1013.81 1014.02 1014.26 1014.55 1014.87 1015.21 1015.53 1015.81 1016.02 1016.14 1016.19 1016.17 1016.12 1016.06 1016.00 1015.95 1015.91 1015.87 1015.81 1015.70 1015.52 1015.29 1015.00 1014.67
1011.82 1012.14 1012.27 1012.17 1011.86 1011.42 1010.93 1010.49 1010.18 1010.05 1010.13 1010.38 1010.77 1011.23 1011.71 1012.15 1012.53 1012.85 1013.12 1013.39 1013.67 1013.99 1014.36 1014.76 1015.18 1015.57 1015.91 1016.16 1016.32 1016.39 1016.37 1016.31 1016.22 1016.13 1016.04 1015.97 1015.90 1015.81 1015.69 1015.52 1015.29 1015.02 1014.72
1011.85 1012.19 1012.33 1012.26 1011.99 1011.59 1011.12 1010.68 1010.34 1010.16 1010.14 1010.29 1010.57 1010.93 1011.31 1011.68 1012.03 1012.35 1012.65 1012.97 1013.33 1013.73 1014.19 1014.68 1015.17 1015.62 1016.01 1016.29 1016.47 1016.55 1016.53 1016.44 1016.33 1016.20 1016.09 1015.98 1015.89 1015.79 1015.66 1015.50 1015.31 1015.08 1014.83
1011.85 1012.18 1012.34 1012.31 1012.09 1011.74 1011.31 1010.90 1010.55 1010.33 1010.25 1010.31 1010.47 1010.72 1011.01 1011.31 1011.62 1011.94 1012.27 1012.64 1013.07 1013.55 1014.09 1014.64 1015.19 1015.69 1016.11 1016.42 1016.60 1016.67 1016.64 1016.53 1016.39 1016.24 1016.10 1015.97 1015.86 1015.75 1015.64 1015.50 1015.35 1015.17 1015.00
1011.86 1012.19 1012.37 1012.37 1012.19 1011.89 1011.52 1011.13 1010.79 1010.54 1010.40 1010.38 1010.46 1010.61 1010.82 1011.07 1011.34 1011.66 1012.02 1012.44 1012.93 1013.48 1014.08 1014.69 1015.28 1015.81 1016.24 1016.54 1016.72 1016.77 1016.72 1016.60 1016.44 1016.27 1016.11 1015.97 1015.85 1015.75 1015.64 1015.53 1015.42 1015.30 1015.20
1011.93 1012.26 1012.44 1012.45 1012.31 1012.04 1011.69 1011.32 1010.99 1010.72 1010.54 1010.46 1010.46 1010.55 1010.70 1010.91 1011.18 1011.51 1011.91 1012.39 1012.93 1013.54 1014.18 1014.83 1015.43 1015.96 1016.38 1016.67 1016.83 1016.87 1016.80 1016.67 1016.50 1016.33 1016.16 1016.02 1015.89 1015.79 1015.70 1015.61 1015.53 1015.47 1015.43
1012.07 1012.39 1012.55 1012.54 1012.39 1012.12 1011.78 1011.41 1011.06 1010.77 1010.56 1010.44 1010.41 1010.46 1010.59 1010.80 1011.09 1011.46 1011.91 1012.44 1013.04 1013.69 1014.36 1015.02 1015.62 1016.14 1016.53 1016.80 1016.93 1016.96 1016.88 1016.75 1016.59 1016.42 1016.26 1016.12 1016.01 1015.91 1015.83 1015.76 1015.70 1015.67 1015.68
1012.24 1012.52 1012.63 1012.58 1012.38 1012.08 1011.70 1011.31 1010.94 1010.62 1010.39 1010.25 1010.21 1010.27 1010.42 1010.67 1011.01 1011.45 1011.97 1012.56 1013.21 1013.89 1014.58 1015.23 1015.81 1016.29 1016.66 1016.90 1017.01 1017.03 1016.96 1016.85 1016.71 1016.57 1016.43 1016.32 1016.22 1016.13 1016.05 1015.98 1015.93 1015.92 1015.95
1012.37 1012.59 1012.63 1012.50 1012.22 1011.85 1011.41 1010.97 1010.56 1010.22 1009.97 1009.84 1009.82 1009.92 1010.14 1010.47 1010.89 1011.42 1012.02 1012.68 1013.38 1014.08 1014.77 1015.41 1015.95 1016.40 1016.73 1016.94 1017.05 1017.08 1017.04 1016.96 1016.86 1016.77 1016.68 1016.60 1016.52 1016.45 1016.37 1016.30 1016.25 1016.23 1016.26
1012.42 1012.55 1012.49 1012.26 1011.88 1011.42 1010.90 1010.40 1009.94 1009.58 1009.34 1009.23 1009.27 1009.44 1009.75 1010.18 1010.72 1011.34 1012.03 1012.76 1013.50 1014.23 1014.91 1015.51 1016.03 1016.44 1016.74 1016.94 1017.05 1017.10 1017.11 1017.08 1017.05 1017.02 1016.99 1016.96 1016.91 1016.86 1016.79 1016.72 1016.65 1016.61 1016.62
1012.35 1012.38 1012.21 1011.87 1011.40 1010.84 1010.24 1009.68 1009.19 1008.82 1008.59 1008.53 1008.63 1008.90 1009.32 1009.86 1010.52 1011.24 1012.02 1012.81 1013.59 1014.32 1014.98 1015.56 1016.03 1016.41 1016.69 1016.89 1017.02 1017.11 1017.18 1017.23 1017.27 1017.32 1017.35 1017.37 1017.37 1017.34 1017.28 1017.20 1017.11 1017.05 1017.02
1012.17 1012.11 1011.85 1011.41 1010.85 1010.22 1009.57 1008.96 1008.45 1008.08 1007.89 1007.88 1008.07 1008.43 1008.96 1009.62 1010.37 1011.19 1012.04 1012.87 1013.66 1014.39 1015.03 1015.57 1016.01 1016.36 1016.63 1016.84 1017.01 1017.14 1017.27 1017.40 1017.52 1017.64 1017.74 1017.81 1017.84 1017.84 1017.78 1017.70 1017.60 1017.51 1017.45
1011.94 1011.80 1011.47 1010.98 1010.37 1009.70 1009.02 1008.41 1007.91 1007.57 1007.42 1007.47 1007.73 1008.19 1008.80 1009.55 1010.39 1011.27 1012.16 1013.01 1013.80 1014.50 1015.11 1015.62 1016.03 1016.35 1016.62 1016.84 1017.04 1017.22 1017.41 1017.60 1017.79 1017.97 1018.12 1018.23 1018.29 1018.30 1018.25 1018.16 1018.05 1017.93 1017.83
1011.72 1011.54 1011.19 1010.69 1010.09 1009.42 1008.77 1008.18 1007.71 1007.42 1007.32 1007.43 1007.76 1008.27 1008.95 1009.76 1010.64 1011.54 1012.44 1013.28 1014.05 1014.72 1015.28 1015.75 1016.12 1016.43 1016.69 1016.93 1017.15 1017.38 1017.61 1017.85 1018.07 1018.28 1018.46 1018.58 1018.65 1018.66 1018.60 1018.51 1018.38 1018.25 1018.12
1011.57 1011.41 1011.09 1010.63 1010.08 1009.48 1008.89 1008.36 1007.95 1007.72 1007.67 1007.83 1008.20 1008.75 1009.46 1010.27 1011.15 1012.05 1012.91 1013.72 1014.44 1015.05 1015.57 1015.99 1016.34 1016.63 1016.89 1017.13 1017.37 1017.62 1017.87 1018.12 1018.35 1018.56 1018.72 1018.83 1018.87 1018.86 1018.79 1018.68 1018.54 1018.39 1018.24
1011.54 1011.43 1011.19 1010.82 1010.38 1009.88 1009.39 1008.95 1008.62 1008.44 1008.45 1008.64 1009.03 1009.58 1010.28 1011.06 1011.91 1012.75 1013.56 1014.30 1014.95 1015.51 1015.97 1016.35 1016.67 1016.94 1017.19 1017.43 1017.67 1017.91 1018.15 1018.38 1018.59 1018.75 1018.87 1018.93 1018.93 1018.87 1018.77 1018.63 1018.48 1018.32 1018.17
1011.63 1011.61 1011.48 1011.25 1010.93 1010.56 1010.19 1009.86 1009.61 1009.50 1009.54 1009.75 1010.13 1010.65 1011.30 1012.03 1012.80 1013.57 1014.30 1014.96 1015.54 1016.03 1016.44 1016.78 1017.07 1017.32 1017.56 1017.78 1018.01 1018.22 1018.43 1018.61 1018.75 1018.84 1018.89 1018.87 1018.80 1018.69 1018.54 1018.38 1018.21 1018.05 1017.90
1011.81 1011.90 1011.90 1011.81 1011.63 1011.40 1011.15 1010.92 1010.76 1010.70 1010.76 1010.97 1011.32 1011.79 1012.38 1013.03 1013.71 1014.39 1015.02 1015.60 1016.11 1016.54 1016.90 1017.20 1017.46 1017.69 1017.91 1018.12 1018.31 1018.49 1018.64 1018.75 1018.81 1018.82 1018.76 1018.66 1018.51 1018.34 1018.14 1017.95 1017.78 1017.62 1017.49
Thickness
5742 5738 5734 5731 5727 5723 5719 5715 5711 5708 5704 5702 5699 5696 5694 5693 5692 5690 5688 5687 5686 5686 5685 5687 5685 5684 5684 5682 5683 5682 5683 5683 5683 5682 5682 5684 5686 5686 5685 5685 5686 5687 5687
5735 5731 5727 5725 5721 5717 5713 5709 5705 5703 5700 5698 5696 5693 5691 5688 5687 5685 5682 5681 5680 5679 5681 5679 5679 5678 5677 5676 5676 5675 5676 5678 5678 5677 5676 5676 5678 5679 5681 5680 5680 5681 5681
5731 5725 5721 5718 5715 5711 5707 5704 5700 5697 5694 5693 5691 5687 5684 5682 5680 5678 5677 5675 5674 5673 5672 5672 5672 5671 5671 5672 5670 5669 5669 5670 5672 5673 5671 5670 5672 5672 5673 5673 5674 5674 5675
5727 5721 5716 5712 5708 5705 5701 5697 5693 5690 5688 5686 5684 5681 5679 5676 5674 5672 5671 5669 5668 5667 5666 5666 5665 5665 5665 5664 5664 5665 5663 5663 5665 5666 5666 5666 5667 5664 5664 5666 5668 5668 5668
5721 5715 5711 5707 5703 5699 5695 5691 5686 5683 5680 5678 5675 5673 5673 5670 5668 5666 5664 5663 5663 5661 5660 5659 5658 5658 5659 5658 5657 5656 5656 5657 5658 5660 5660 5660 5660 5661 5658 5659 5660 5660 5662
5715 5710 5706 5702 5697 5692 5688 5684 5679 5674 5672 5669 5667 5666 5664 5662 5660 5658 5657 5657 5657 5656 5655 5653 5652 5652 5652 5650 5650 5649 5650 5650 5651 5652 5654 5654 5655 5656 5655 5654 5655 5655 5655
5707 5702 5697 5694 5690 5685 5681 5677 5672 5667 5664 5661 5659 5658 5656 5654 5652 5651 5651 5650 5650 5650 5647 5647 5645 5645 5644 5643 5643 5643 5644 5644 5644 5645 5647 5648 5649 5650 5649 5649 5650 5650 5650
5701 5696 5693 5688 5684 5680 5675 5671 5666 5661 5658 5655 5652 5651 5649 5649 5648 5644 5644 5643 5643 5642 5640 5638 5638 5638 5637 5637 5637 5638 5638 5638 5638 5639 5640 5641 5643 5644 5644 5644 5644 5644 5645
5694 5691 5687 5683 5679 5674 5669 5665 5660 5656 5653 5649 5647 5644 5642 5640 5639 5637 5636 5636 5634 5634 5633 5632 5631 5631 5630 5630 5630 5632 5631 5632 5632 5634 5634 5635 5637 5637 5638 5639 5639 5639 5639
5687 5684 5680 5676 5673 5669 5664 5660 5655 5651 5648 5644 5642 5638 5635 5632 5631 5631 5629 5627 5627 5626 5625 5625 5625 5624 5624 5624 5624 5625 5625 5625 5626 5627 5628 5629 5631 5631 5632 5633 5634 5635 5636
5679 5675 5672 5670 5666 5662 5658 5653 5649 5645 5641 5638 5634 5631 5628 5626 5625 5623 5622 5621 5619 5618 5618 5618 5618 5617 5617 5617 5617 5618 5618 5618 5619 5620 5621 5623 5623 5625 5626 5627 5628 5629 5630
5671 5668 5665 5662 5659 5655 5651 5646 5641 5637 5634 5631 5627 5624 5622 5620 5618 5616 5615 5613 5612 5612 5611 5610 5610 5610 5611 5610 5610 5611 5611 5612 5612 5613 5614 5615 5617 5617 5619 5620 5621 5623 5623
5663 5660 5656 5653 5651 5647 5642 5638 5634 5630 5626 5623 5620 5617 5615 5613 5611 5609 5607 5606 5605 5604 5604 5603 5603 5603 5603 5604 5603 5604 5605 5605 5606 5607 5608 5608 5609 5610 5612 5613 5615 5616 5618
5657 5653 5649 5645 5642 5639 5636 5632 5628 5624 5619 5616 5614 5611 5608 5606 5604 5602 5600 5599 5598 5597 5597 5597 5597 5596 5597 5597 5596 5597 5597 5598 5599 5600 5601 5602 5603 5604 5605 5606 5608 5609 5610
5651 5647 5643 5638 5635 5632 5629 5625 5621 5617 5613 5610 5607 5605 5601 5599 5597 5594 5593 5592 5592 5591 5590 5590 5590 5589 5590 5589 5588 5589 5590 5591 5592 5594 5595 5596 5595 5595 5596 5599 5601 5603 5604
5647 5643 5638 5633 5629 5625 5621 5617 5614 5610 5607 5604 5602 5599 5595 5592 5590 5588 5587 5585 5585 5583 5583 5583 5583 5583 5582 5578 5577 5579 5583 5585 5586 5587 5588 5589 5589 5589 5589 5590 5591 5593 5597
5643 5638 5633 5628 5623 5619 5615 5611 5608 5604 5601 5598 5596 5594 5590 5587 5584 5582 5581 5579 5577 5576 5576 5576 5576 5575 5573 5570 5570 5571 5576 5578 5579 5580 5582 5585 5585 5586 5587 5585 5585 5586 5587
5638 5633 5628 5623 5619 5615 5611 5607 5604 5600 5597 5594 5591 5588 5585 5582 5579 5577 5574 5572 5571 5570 5569 5569 5569 5568 5566 5563 5564 5566 5570 5573 5573 5574 5575 5577 5578 5580 5581 5582 5582 5582 5582
5633 5629 5625 5620 5616 5611 5607 5603 5599 5596 5593 5589 5586 5583 5581 5578 5575 5572 5569 5567 5565 5564 5564 5563 5562 5562 5560 5557 5559 5560 5566 5567 5568 5569 5569 5571 5572 5570 5572 5576 5576 5576 5575
5628 5625 5622 5617 5612 5607 5603 5599 5595 5592 5588 5586 5582 5579 5576 5574 5571 5567 5565 5563 5561 5559 5559 5558 5557 5557 5556 5552 5553 5554 5562 5563 5564 5565 5565 5564 5565 5563 5565 5570 5571 5571 5571
5623 5620 5617 5612 5608 5603 5599 5595 5592 5588 5585 5582 5579 5575 5572 5570 5567 5563 5561 5559 5558 5556 5555 5554 5553 5553 5551 5549 5549 5550 5556 5558 5560 5563 5564 5562 5558 5558 5560 5562 5565 5565 5566
5619 5615 5612 5607 5603 5600 5596 5592 5588 5585 5582 5578 5576 5572 5569 5568 5565 5561 5559 5557 5555 5554 5554 5552 5552 5551 5549 5547 5546 5546 5548 5550 5555 5558 5559 5557 5554 5554 5556 5558 5558 5559 5561
5615 5612 5608 5603 5599 5596 5593 5589 5585 5583 5580 5577 5574 5571 5568 5566 5563 5560 5558 5556 5555 5556 5554 5553 5553 5551 5550 5547 5544 5544 5544 5546 5550 5552 5550 5551 5551 5552 5554 5554 5555 5557 5562
5612 5608 5604 5600 5596 5593 5590 5587 5584 5581 5578 5575 5572 5569 5567 5565 5562 5560 5559 5557 5556 5555 5554 5553 5553 5552 5550 5550 5547 5546 5546 5544 5547 5550 5549 5548 5550 5551 5552 5554 5557 5560 5562
5608 5606 5602 5598 5595 5591 5588 5586 5583 5580 5577 5574 5571 5569 5568 5566 5561 5560 5557 5555 5553 5552 5550 5552 5552 5552 5551 5546 5541 5542 5545 5546 5547 5547 5551 5554 5557 5558 5560 5560 5561 5562 5563
5606 5603 5601 5597 5594 5591 5588 5585 5582 5579 5576 5574 5572 5571 5569 5566 5564 5561 5558 5552 5551 5548 5546 5544 5544 5547 5544 5541 5540 5539 5539 5540 5541 5545 5553 5555 5558 5560 5562 5563 5564 5564 5564